Location: Cahas Mountain Overlook
(37.0833°N, 80.1000°W)
Time: 07:49:50
(UTC-04:00)

Tiros 1 - Pass Details

Date: 08 February 2026
Orbit: 618 x 650 km, 48.4° (Epoch: 14 March)

Event Time Altitude Azimuth Distance (km) Brightness Sun altitude
Rises 16:28:31 0° 305° (NW) 2,885 10.8 14.4°
Reaches altitude 10° 16:31:12 10° 320° (NW) 1,979 9.8 14.0°
Maximum altitude 16:34:54 24° 15° (NNE) 1,287 8.4 13.4°
Drops below altitude 10° 16:38:37 10° 69° (ENE) 1,984 9.1 12.7°
Sets 16:41:19 0° 84° (E) 2,894 9.9 12.3°
